Time,TemperatureF,DewpointF,PressureIn,WindDirection,WindDirectionDegrees,WindSpeedMPH,WindSpeedGustMPH,Humidity,HourlyPrecipIn,Conditions,Clouds,dailyrainin,SoftwareType,DateUTC
2013-02-03 00:00:00,59.0,33.4,30.20,SW,234,5.0,5.0,38,0.00,,,0.00,Wunderground v.1.15,2013-02-03 08:00:00,
2013-02-03 00:06:00,59.0,33.4,30.19,SW,235,4.0,5.0,38,0.00,,,0.00,Wunderground v.1.15,2013-02-03 08:06:00,
2013-02-03 00:12:00,59.1,34.1,30.19,WSW,250,3.0,3.0,39,0.00,,,0.00,Wunderground v.1.15,2013-02-03 08:12:00,
2013-02-03 00:18:00,59.1,33.5,30.19,West,261,4.0,5.0,38,0.00,,,0.00,Wunderground v.1.15,2013-02-03 08:18:00,
2013-02-03 00:24:00,59.2,33.6,30.18,West,263,5.0,5.0,38,0.00,,,0.00,Wunderground v.1.15,2013-02-03 08:24:00,
2013-02-03 00:30:00,59.2,33.6,30.18,West,272,4.0,6.0,38,0.00,,,0.00,Wunderground v.1.15,2013-02-03 08:30:00,
2013-02-03 00:36:00,59.2,33.6,30.18,West,272,4.0,6.0,38,0.00,,,0.00,Wunderground v.1.15,2013-02-03 08:36:00,
2013-02-03 00:42:00,59.2,34.2,30.18,WNW,284,3.0,7.0,39,0.00,,,0.00,Wunderground v.1.15,2013-02-03 08:42:00,
2013-02-03 00:48:00,59.0,34.7,30.18,WNW,303,5.0,9.0,40,0.00,,,0.00,Wunderground v.1.15,2013-02-03 08:48:00,
2013-02-03 00:54:00,59.0,35.3,30.18,WNW,285,5.0,6.0,41,0.00,,,0.00,Wunderground v.1.15,2013-02-03 08:54:00,
2013-02-03 01:00:00,59.0,35.9,30.18,West,279,4.0,6.0,42,0.00,,,0.00,Wunderground v.1.15,2013-02-03 09:00:00,
2013-02-03 01:06:00,58.9,36.4,30.18,West,279,3.0,6.0,43,0.00,,,0.00,Wunderground v.1.15,2013-02-03 09:06:00,
2013-02-03 01:12:00,58.6,36.7,30.18,West,275,3.0,3.0,44,0.00,,,0.00,Wunderground v.1.15,2013-02-03 09:12:00,
2013-02-03 01:18:00,58.3,36.5,30.17,West,271,1.0,4.0,44,0.00,,,0.00,Wunderground v.1.15,2013-02-03 09:18:00,
2013-02-03 01:24:00,57.9,37.2,30.17,WSW,245,3.0,4.0,46,0.00,,,0.00,Wunderground v.1.15,2013-02-03 09:24:00,
2013-02-03 01:30:00,57.6,37.0,30.17,WSW,244,4.0,5.0,46,0.00,,,0.00,Wunderground v.1.15,2013-02-03 09:30:00,
2013-02-03 01:36:00,57.3,37.2,30.17,WSW,244,4.0,6.0,47,0.00,,,0.00,Wunderground v.1.15,2013-02-03 09:36:00,
2013-02-03 01:42:00,57.0,37.0,30.17,WSW,244,4.0,5.0,47,0.00,,,0.00,Wunderground v.1.15,2013-02-03 09:42:00,
2013-02-03 01:48:00,56.8,37.8,30.16,WSW,244,4.0,5.0,49,0.00,,,0.00,Wunderground v.1.15,2013-02-03 09:48:00,
2013-02-03 01:54:00,56.7,38.8,30.16,WSW,244,4.0,4.0,51,0.00,,,0.00,Wunderground v.1.15,2013-02-03 09:54:00,
2013-02-03 02:00:00,56.5,39.1,30.16,WSW,244,4.0,4.0,52,0.00,,,0.00,Wunderground v.1.15,2013-02-03 10:00:00,
2013-02-03 02:06:00,56.3,37.9,30.15,WSW,244,1.0,4.0,50,0.00,,,0.00,Wunderground v.1.15,2013-02-03 10:06:00,
2013-02-03 02:12:00,56.2,37.8,30.15,West,281,1.0,4.0,50,0.00,,,0.00,Wunderground v.1.15,2013-02-03 10:12:00,
2013-02-03 02:18:00,56.1,38.2,30.15,West,281,1.0,4.0,51,0.00,,,0.00,Wunderground v.1.15,2013-02-03 10:18:00,
2013-02-03 02:24:00,56.0,39.1,30.15,West,281,0.0,1.0,53,0.00,,,0.00,Wunderground v.1.15,2013-02-03 10:24:00,
2013-02-03 02:30:00,55.9,39.0,30.15,West,281,0.0,0.0,53,0.00,,,0.00,Wunderground v.1.15,2013-02-03 10:30:00,
2013-02-03 02:36:00,55.7,39.3,30.15,West,281,0.0,0.0,54,0.00,,,0.00,Wunderground v.1.15,2013-02-03 10:36:00,
2013-02-03 02:42:00,55.5,39.1,30.15,West,281,1.0,3.0,54,0.00,,,0.00,Wunderground v.1.15,2013-02-03 10:42:00,
2013-02-03 02:48:00,55.3,38.9,30.15,West,280,2.0,3.0,54,0.00,,,0.00,Wunderground v.1.15,2013-02-03 10:48:00,
2013-02-03 02:54:00,55.2,38.8,30.14,West,281,1.0,2.0,54,0.00,,,0.00,Wunderground v.1.15,2013-02-03 10:54:00,
2013-02-03 03:00:00,55.1,38.7,30.14,West,271,2.0,2.0,54,0.00,,,0.00,Wunderground v.1.15,2013-02-03 11:00:00,
2013-02-03 03:06:00,54.9,38.1,30.14,West,271,3.0,3.0,53,0.00,,,0.00,Wunderground v.1.15,2013-02-03 11:06:00,
2013-02-03 03:12:00,54.8,38.5,30.14,West,271,1.0,2.0,54,0.00,,,0.00,Wunderground v.1.15,2013-02-03 11:12:00,
2013-02-03 03:18:00,54.8,39.4,30.14,West,271,1.0,2.0,56,0.00,,,0.00,Wunderground v.1.15,2013-02-03 11:18:00,
2013-02-03 03:24:00,54.7,38.8,30.14,West,271,1.0,1.0,55,0.00,,,0.00,Wunderground v.1.15,2013-02-03 11:24:00,
2013-02-03 03:30:00,54.6,38.3,30.14,West,271,0.0,0.0,54,0.00,,,0.00,Wunderground v.1.15,2013-02-03 11:30:00,
2013-02-03 03:36:00,54.5,37.7,30.14,West,271,0.0,0.0,53,0.00,,,0.00,Wunderground v.1.15,2013-02-03 11:36:00,
2013-02-03 03:42:00,54.5,38.2,30.13,West,271,0.0,0.0,54,0.00,,,0.00,Wunderground v.1.15,2013-02-03 11:42:00,
2013-02-03 03:48:00,54.4,38.1,30.13,West,271,0.0,0.0,54,0.00,,,0.00,Wunderground v.1.15,2013-02-03 11:48:00,
2013-02-03 03:54:00,54.4,38.1,30.13,West,271,0.0,0.0,54,0.00,,,0.00,Wunderground v.1.15,2013-02-03 11:54:00,
2013-02-03 04:00:00,54.3,38.5,30.13,West,271,0.0,0.0,55,0.00,,,0.00,Wunderground v.1.15,2013-02-03 12:00:00,
2013-02-03 04:06:00,54.2,37.9,30.13,West,271,0.0,0.0,54,0.00,,,0.00,Wunderground v.1.15,2013-02-03 12:06:00,
2013-02-03 04:12:00,54.1,38.3,30.12,West,271,0.0,0.0,55,0.00,,,0.00,Wunderground v.1.15,2013-02-03 12:12:00,
2013-02-03 04:18:00,54.0,38.6,30.13,West,271,1.0,2.0,56,0.00,,,0.00,Wunderground v.1.15,2013-02-03 12:18:00,
2013-02-03 04:24:00,53.9,38.6,30.12,West,271,2.0,3.0,56,0.00,,,0.00,Wunderground v.1.15,2013-02-03 12:24:00,
2013-02-03 04:30:00,53.7,38.4,30.12,West,271,2.0,2.0,56,0.00,,,0.00,Wunderground v.1.15,2013-02-03 12:30:00,
2013-02-03 04:36:00,53.6,38.3,30.12,West,271,1.0,2.0,56,0.00,,,0.00,Wunderground v.1.15,2013-02-03 12:36:00,
2013-02-03 04:42:00,53.4,37.6,30.12,West,271,2.0,4.0,55,0.00,,,0.00,Wunderground v.1.15,2013-02-03 12:42:00,
2013-02-03 04:48:00,53.2,37.4,30.12,West,267,4.0,5.0,55,0.00,,,0.00,Wunderground v.1.15,2013-02-03 12:48:00,
2013-02-03 04:54:00,52.9,37.2,30.12,West,261,5.0,6.0,55,0.00,,,0.00,Wunderground v.1.15,2013-02-03 12:54:00,
2013-02-03 05:00:00,52.6,36.4,30.12,WSW,255,5.0,5.0,54,0.00,,,0.00,Wunderground v.1.15,2013-02-03 13:00:00,
2013-02-03 05:06:00,52.3,36.1,30.12,WSW,254,5.0,5.0,54,0.00,,,0.00,Wunderground v.1.15,2013-02-03 13:06:00,
2013-02-03 05:12:00,52.1,36.4,30.11,WSW,254,4.0,4.0,55,0.00,,,0.00,Wunderground v.1.15,2013-02-03 13:12:00,
2013-02-03 05:18:00,51.9,36.2,30.12,WSW,254,4.0,4.0,55,0.00,,,0.00,Wunderground v.1.15,2013-02-03 13:18:00,
2013-02-03 05:24:00,51.7,36.5,30.12,WSW,254,3.0,3.0,56,0.00,,,0.00,Wunderground v.1.15,2013-02-03 13:24:00,
2013-02-03 05:30:00,51.5,36.3,30.12,WSW,254,3.0,3.0,56,0.00,,,0.00,Wunderground v.1.15,2013-02-03 13:30:00,
2013-02-03 05:36:00,51.5,36.3,30.12,WSW,254,2.0,3.0,56,0.00,,,0.00,Wunderground v.1.15,2013-02-03 13:36:00,
2013-02-03 05:42:00,51.4,36.2,30.12,WSW,254,3.0,4.0,56,0.00,,,0.00,Wunderground v.1.15,2013-02-03 13:42:00,
2013-02-03 05:48:00,51.3,36.1,30.12,WSW,254,4.0,5.0,56,0.00,,,0.00,Wunderground v.1.15,2013-02-03 13:48:00,
2013-02-03 05:54:00,51.3,36.1,30.12,WSW,254,4.0,4.0,56,0.00,,,0.00,Wunderground v.1.15,2013-02-03 13:54:00,
2013-02-03 06:00:00,51.1,36.4,30.11,WSW,254,3.0,4.0,57,0.00,,,0.00,Wunderground v.1.15,2013-02-03 14:00:00,
2013-02-03 06:06:00,51.0,35.8,30.12,WSW,254,4.0,5.0,56,0.00,,,0.00,Wunderground v.1.15,2013-02-03 14:06:00,
2013-02-03 06:12:00,50.9,35.7,30.12,WSW,254,4.0,4.0,56,0.00,,,0.00,Wunderground v.1.15,2013-02-03 14:12:00,
2013-02-03 06:18:00,50.6,35.5,30.12,WSW,254,4.0,4.0,56,0.00,,,0.00,Wunderground v.1.15,2013-02-03 14:18:00,
2013-02-03 06:24:00,50.3,35.6,30.11,WSW,254,4.0,5.0,57,0.00,,,0.00,Wunderground v.1.15,2013-02-03 14:24:00,
2013-02-03 06:30:00,50.0,35.4,30.11,WSW,254,5.0,5.0,57,0.00,,,0.00,Wunderground v.1.15,2013-02-03 14:30:00,
2013-02-03 06:36:00,49.7,35.5,30.11,WSW,254,5.0,5.0,58,0.00,,,0.00,Wunderground v.1.15,2013-02-03 14:36:00,
2013-02-03 06:42:00,49.4,35.2,30.11,WSW,254,3.0,4.0,58,0.00,,,0.00,Wunderground v.1.15,2013-02-03 14:42:00,
2013-02-03 06:48:00,49.2,35.0,30.11,WSW,254,2.0,4.0,58,0.00,,,0.00,Wunderground v.1.15,2013-02-03 14:48:00,
2013-02-03 06:54:00,48.8,35.1,30.12,WSW,255,1.0,3.0,59,0.00,,,0.00,Wunderground v.1.15,2013-02-03 14:54:00,
2013-02-03 07:00:00,48.6,35.3,30.12,WSW,255,1.0,3.0,60,0.00,,,0.00,Wunderground v.1.15,2013-02-03 15:00:00,
2013-02-03 07:06:00,48.2,35.4,30.13,WSW,254,1.0,3.0,61,0.00,,,0.00,Wunderground v.1.15,2013-02-03 15:06:00,
2013-02-03 07:12:00,47.9,35.5,30.13,WSW,255,0.0,1.0,62,0.00,,,0.00,Wunderground v.1.15,2013-02-03 15:12:00,
2013-02-03 07:18:00,47.6,35.2,30.13,WSW,255,0.0,1.0,62,0.00,,,0.00,Wunderground v.1.15,2013-02-03 15:18:00,
2013-02-03 07:24:00,47.4,35.4,30.13,WSW,255,0.0,0.0,63,0.00,,,0.00,Wunderground v.1.15,2013-02-03 15:24:00,
2013-02-03 07:30:00,47.3,35.7,30.13,WSW,254,0.0,0.0,64,0.00,,,0.00,Wunderground v.1.15,2013-02-03 15:30:00,
2013-02-03 07:36:00,47.5,35.9,30.13,WSW,255,0.0,0.0,64,0.00,,,0.00,Wunderground v.1.15,2013-02-03 15:36:00,
2013-02-03 07:42:00,47.9,36.3,30.13,WSW,255,2.0,3.0,64,0.00,,,0.00,Wunderground v.1.15,2013-02-03 15:42:00,
2013-02-03 07:48:00,49.0,36.5,30.13,WSW,255,2.0,3.0,62,0.00,,,0.00,Wunderground v.1.15,2013-02-03 15:48:00,
2013-02-03 07:54:00,50.3,37.4,30.12,WSW,255,1.0,2.0,61,0.00,,,0.00,Wunderground v.1.15,2013-02-03 15:54:00,
2013-02-03 08:00:00,51.4,36.7,30.12,WSW,255,1.0,1.0,57,0.00,,,0.00,Wunderground v.1.15,2013-02-03 16:00:00,
2013-02-03 08:06:00,52.7,37.0,30.13,WSW,254,0.0,1.0,55,0.00,,,0.00,Wunderground v.1.15,2013-02-03 16:06:00,
2013-02-03 08:12:00,53.6,36.9,30.13,WSW,255,0.0,0.0,53,0.00,,,0.00,Wunderground v.1.15,2013-02-03 16:12:00,
2013-02-03 08:18:00,54.4,37.1,30.13,WSW,255,0.0,2.0,52,0.00,,,0.00,Wunderground v.1.15,2013-02-03 16:18:00,
2013-02-03 08:24:00,55.1,37.3,30.13,WSW,255,1.0,2.0,51,0.00,,,0.00,Wunderground v.1.15,2013-02-03 16:24:00,
2013-02-03 08:30:00,55.8,37.4,30.13,WSW,255,2.0,6.0,50,0.00,,,0.00,Wunderground v.1.15,2013-02-03 16:30:00,
2013-02-03 08:36:00,56.3,37.4,30.13,WSW,250,4.0,6.0,49,0.00,,,0.00,Wunderground v.1.15,2013-02-03 16:36:00,
2013-02-03 08:42:00,56.9,36.9,30.13,WSW,242,4.0,6.0,47,0.00,,,0.00,Wunderground v.1.15,2013-02-03 16:42:00,
2013-02-03 08:48:00,57.5,37.4,30.13,WSW,242,4.0,7.0,47,0.00,,,0.00,Wunderground v.1.15,2013-02-03 16:48:00,
2013-02-03 08:54:00,58.0,36.8,30.13,WSW,241,4.0,4.0,45,0.00,,,0.00,Wunderground v.1.15,2013-02-03 16:54:00,
2013-02-03 09:00:00,58.4,37.1,30.13,WSW,242,3.0,5.0,45,0.00,,,0.00,Wunderground v.1.15,2013-02-03 17:00:00,
2013-02-03 09:06:00,59.0,37.7,30.13,WSW,242,3.0,5.0,45,0.00,,,0.00,Wunderground v.1.15,2013-02-03 17:06:00,
2013-02-03 09:12:00,59.4,37.5,30.13,WSW,242,4.0,4.0,44,0.00,,,0.00,Wunderground v.1.15,2013-02-03 17:12:00,
2013-02-03 09:18:00,60.0,37.4,30.13,WSW,244,3.0,4.0,43,0.00,,,0.00,Wunderground v.1.15,2013-02-03 17:18:00,
2013-02-03 09:24:00,60.4,38.4,30.13,WSW,244,3.0,3.0,44,0.00,,,0.00,Wunderground v.1.15,2013-02-03 17:24:00,
2013-02-03 09:30:00,60.9,37.6,30.13,WSW,244,3.0,3.0,42,0.00,,,0.00,Wunderground v.1.15,2013-02-03 17:30:00,
2013-02-03 09:36:00,61.4,37.5,30.13,WSW,244,3.0,3.0,41,0.00,,,0.00,Wunderground v.1.15,2013-02-03 17:36:00,
2013-02-03 09:42:00,62.0,37.4,30.13,WSW,244,2.0,3.0,40,0.00,,,0.00,Wunderground v.1.15,2013-02-03 17:42:00,
2013-02-03 09:48:00,61.9,37.3,30.13,WSW,244,2.0,4.0,40,0.00,,,0.00,Wunderground v.1.15,2013-02-03 17:48:00,
2013-02-03 09:54:00,62.7,37.4,30.12,WSW,244,2.0,3.0,39,0.00,,,0.00,Wunderground v.1.15,2013-02-03 17:54:00,
2013-02-03 10:00:00,62.8,37.5,30.13,WSW,244,2.0,2.0,39,0.00,,,0.00,Wunderground v.1.15,2013-02-03 18:00:00,
2013-02-03 10:06:00,63.1,38.4,30.12,WSW,244,1.0,2.0,40,0.00,,,0.00,Wunderground v.1.15,2013-02-03 18:06:00,
2013-02-03 10:12:00,63.6,37.5,30.12,WSW,244,2.0,3.0,38,0.00,,,0.00,Wunderground v.1.15,2013-02-03 18:12:00,
2013-02-03 10:18:00,63.6,36.8,30.12,WSW,244,2.0,3.0,37,0.00,,,0.00,Wunderground v.1.15,2013-02-03 18:18:00,
2013-02-03 10:24:00,63.8,37.0,30.12,WSW,244,1.0,3.0,37,0.00,,,0.00,Wunderground v.1.15,2013-02-03 18:24:00,
2013-02-03 10:30:00,64.9,37.3,30.12,WSW,244,1.0,3.0,36,0.00,,,0.00,Wunderground v.1.15,2013-02-03 18:30:00,
2013-02-03 10:36:00,65.6,37.2,30.12,WSW,244,1.0,3.0,35,0.00,,,0.00,Wunderground v.1.15,2013-02-03 18:36:00,
2013-02-03 10:42:00,65.4,37.0,30.12,WSW,244,1.0,1.0,35,0.00,,,0.00,Wunderground v.1.15,2013-02-03 18:42:00,
2013-02-03 10:48:00,65.4,37.0,30.12,WSW,244,1.0,1.0,35,0.00,,,0.00,Wunderground v.1.15,2013-02-03 18:48:00,
2013-02-03 10:54:00,65.3,36.9,30.12,WSW,244,1.0,4.0,35,0.00,,,0.00,Wunderground v.1.15,2013-02-03 18:54:00,
2013-02-03 11:00:00,65.8,37.4,30.11,West,275,2.0,4.0,35,0.00,,,0.00,Wunderground v.1.15,2013-02-03 19:00:00,
2013-02-03 11:06:00,66.4,37.2,30.11,West,277,3.0,4.0,34,0.00,,,0.00,Wunderground v.1.15,2013-02-03 19:06:00,
2013-02-03 11:12:00,65.9,36.0,30.10,West,276,2.0,2.0,33,0.00,,,0.00,Wunderground v.1.15,2013-02-03 19:12:00,
2013-02-03 11:18:00,65.9,36.0,30.10,West,277,0.0,2.0,33,0.00,,,0.00,Wunderground v.1.15,2013-02-03 19:18:00,
2013-02-03 11:24:00,67.0,36.9,30.09,West,276,1.0,3.0,33,0.00,,,0.00,Wunderground v.1.15,2013-02-03 19:24:00,
2013-02-03 11:30:00,67.0,38.4,30.09,West,277,2.0,2.0,35,0.00,,,0.00,Wunderground v.1.15,2013-02-03 19:30:00,
2013-02-03 11:36:00,67.1,35.4,30.08,West,277,1.0,3.0,31,0.00,,,0.00,Wunderground v.1.15,2013-02-03 19:36:00,
2013-02-03 11:42:00,67.4,37.3,30.08,West,277,1.0,2.0,33,0.00,,,0.00,Wunderground v.1.15,2013-02-03 19:42:00,
2013-02-03 11:48:00,67.3,35.6,30.07,West,276,1.0,3.0,31,0.00,,,0.00,Wunderground v.1.15,2013-02-03 19:48:00,
2013-02-03 11:54:00,67.2,35.5,30.07,West,277,2.0,2.0,31,0.00,,,0.00,Wunderground v.1.15,2013-02-03 19:54:00,
2013-02-03 12:00:00,68.4,35.7,30.07,WSW,253,2.0,4.0,30,0.00,,,0.00,Wunderground v.1.15,2013-02-03 20:00:00,
2013-02-03 12:06:00,68.2,34.7,30.06,WSW,247,3.0,4.0,29,0.00,,,0.00,Wunderground v.1.15,2013-02-03 20:06:00,
2013-02-03 12:12:00,67.2,34.7,30.05,WSW,246,2.0,4.0,30,0.00,,,0.00,Wunderground v.1.15,2013-02-03 20:12:00,
2013-02-03 12:18:00,67.2,34.7,30.05,WSW,247,1.0,4.0,30,0.00,,,0.00,Wunderground v.1.15,2013-02-03 20:18:00,
2013-02-03 12:24:00,68.1,35.5,30.05,WSW,248,1.0,3.0,30,0.00,,,0.00,Wunderground v.1.15,2013-02-03 20:24:00,
2013-02-03 12:30:00,68.2,34.7,30.04,SW,223,1.0,1.0,29,0.00,,,0.00,Wunderground v.1.15,2013-02-03 20:30:00,
2013-02-03 12:36:00,68.0,34.5,30.04,SW,217,2.0,2.0,29,0.00,,,0.00,Wunderground v.1.15,2013-02-03 20:36:00,
2013-02-03 12:42:00,68.1,34.6,30.04,SW,214,1.0,2.0,29,0.00,,,0.00,Wunderground v.1.15,2013-02-03 20:42:00,
2013-02-03 12:48:00,68.9,34.4,30.03,SSW,196,1.0,2.0,28,0.00,,,0.00,Wunderground v.1.15,2013-02-03 20:48:00,
2013-02-03 12:54:00,69.3,34.8,30.03,ESE,116,2.0,4.0,28,0.00,,,0.00,Wunderground v.1.15,2013-02-03 20:54:00,
2013-02-03 13:00:00,69.4,34.9,30.03,ESE,105,3.0,3.0,28,0.00,,,0.00,Wunderground v.1.15,2013-02-03 21:00:00,
2013-02-03 13:06:00,69.1,34.6,30.02,ESE,102,2.0,3.0,28,0.00,,,0.00,Wunderground v.1.15,2013-02-03 21:06:00,
2013-02-03 13:12:00,69.5,34.9,30.02,ESE,105,1.0,1.0,28,0.00,,,0.00,Wunderground v.1.15,2013-02-03 21:12:00,
2013-02-03 13:18:00,69.7,35.1,30.02,East,96,1.0,3.0,28,0.00,,,0.00,Wunderground v.1.15,2013-02-03 21:18:00,
2013-02-03 13:24:00,69.3,34.8,30.01,ENE,76,2.0,5.0,28,0.00,,,0.00,Wunderground v.1.15,2013-02-03 21:24:00,
2013-02-03 13:30:00,69.9,35.3,30.01,NE,51,3.0,3.0,28,0.00,,,0.00,Wunderground v.1.15,2013-02-03 21:30:00,
2013-02-03 13:36:00,70.1,35.5,30.01,ESE,119,3.0,4.0,28,0.00,,,0.00,Wunderground v.1.15,2013-02-03 21:36:00,
2013-02-03 13:42:00,70.5,34.9,30.00,ESE,117,3.0,3.0,27,0.00,,,0.00,Wunderground v.1.15,2013-02-03 21:42:00,
2013-02-03 13:48:00,70.2,34.6,30.00,SE,138,2.0,3.0,27,0.00,,,0.00,Wunderground v.1.15,2013-02-03 21:48:00,
2013-02-03 13:56:00,70.6,35.0,30.00,SSE,150,1.0,2.0,27,0.00,,,0.00,Wunderground v.1.15,2013-02-03 21:56:00,
2013-02-03 14:02:00,70.4,34.8,30.00,SSE,150,1.0,1.0,27,0.00,,,0.00,Wunderground v.1.15,2013-02-03 22:02:00,
2013-02-03 14:08:00,71.0,36.2,30.00,SSE,161,1.0,1.0,28,0.00,,,0.00,Wunderground v.1.15,2013-02-03 22:08:00,
2013-02-03 14:14:00,70.8,34.2,30.00,SSE,162,1.0,1.0,26,0.00,,,0.00,Wunderground v.1.15,2013-02-03 22:14:00,
2013-02-03 14:20:00,70.6,35.0,30.00,SSE,162,1.0,1.0,27,0.00,,,0.00,Wunderground v.1.15,2013-02-03 22:20:00,
2013-02-03 14:26:00,70.6,35.0,29.99,SSE,161,1.0,1.0,27,0.00,,,0.00,Wunderground v.1.15,2013-02-03 22:26:00,
2013-02-03 14:32:00,70.7,34.1,29.99,SSE,161,0.0,0.0,26,0.00,,,0.00,Wunderground v.1.15,2013-02-03 22:32:00,
2013-02-03 14:38:00,70.8,34.2,29.99,SSE,161,0.0,0.0,26,0.00,,,0.00,Wunderground v.1.15,2013-02-03 22:38:00,
2013-02-03 14:44:00,71.3,34.6,29.99,SSE,162,1.0,2.0,26,0.00,,,0.00,Wunderground v.1.15,2013-02-03 22:44:00,
2013-02-03 14:50:00,71.3,34.6,29.99,SE,145,2.0,2.0,26,0.00,,,0.00,Wunderground v.1.15,2013-02-03 22:50:00,
2013-02-03 14:56:00,71.1,34.5,29.99,SE,138,2.0,2.0,26,0.00,,,0.00,Wunderground v.1.15,2013-02-03 22:56:00,
2013-02-03 15:02:00,71.0,34.4,29.99,SE,136,2.0,4.0,26,0.00,,,0.00,Wunderground v.1.15,2013-02-03 23:02:00,
2013-02-03 15:08:00,70.9,33.3,29.99,SE,136,2.0,4.0,25,0.00,,,0.00,Wunderground v.1.15,2013-02-03 23:08:00,
2013-02-03 15:14:00,71.1,33.5,29.99,SE,136,1.0,1.0,25,0.00,,,0.00,Wunderground v.1.15,2013-02-03 23:14:00,
2013-02-03 15:20:00,71.0,33.4,29.99,SE,134,1.0,2.0,25,0.00,,,0.00,Wunderground v.1.15,2013-02-03 23:20:00,
2013-02-03 15:26:00,71.1,33.5,29.99,ESE,105,1.0,4.0,25,0.00,,,0.00,Wunderground v.1.15,2013-02-03 23:26:00,
2013-02-03 15:32:00,70.9,33.3,29.99,ESE,105,2.0,2.0,25,0.00,,,0.00,Wunderground v.1.15,2013-02-03 23:32:00,
2013-02-03 15:38:00,70.9,33.3,29.98,ESE,106,2.0,3.0,25,0.00,,,0.00,Wunderground v.1.15,2013-02-03 23:38:00,
2013-02-03 15:44:00,71.0,33.4,29.98,ESE,103,2.0,2.0,25,0.00,,,0.00,Wunderground v.1.15,2013-02-03 23:44:00,
2013-02-03 15:50:00,71.1,33.5,29.98,ESE,103,2.0,2.0,25,0.00,,,0.00,Wunderground v.1.15,2013-02-03 23:50:00,
2013-02-03 15:56:00,71.0,33.4,29.98,ESE,102,2.0,3.0,25,0.00,,,0.00,Wunderground v.1.15,2013-02-03 23:56:00,
2013-02-03 16:02:00,70.6,33.0,29.98,East,84,3.0,3.0,25,0.00,,,0.00,Wunderground v.1.15,2013-02-04 00:02:00,
2013-02-03 16:08:00,70.2,32.7,29.98,East,84,2.0,3.0,25,0.00,,,0.00,Wunderground v.1.15,2013-02-04 00:08:00,
2013-02-03 16:14:00,70.1,32.6,29.98,East,83,2.0,3.0,25,0.00,,,0.00,Wunderground v.1.15,2013-02-04 00:14:00,
2013-02-03 16:20:00,69.8,33.3,29.98,ENE,76,2.0,4.0,26,0.00,,,0.00,Wunderground v.1.15,2013-02-04 00:20:00,
2013-02-03 16:26:00,69.5,33.1,29.98,ENE,74,3.0,4.0,26,0.00,,,0.00,Wunderground v.1.15,2013-02-04 00:26:00,
2013-02-03 16:32:00,69.2,32.8,29.98,ENE,72,3.0,4.0,26,0.00,,,0.00,Wunderground v.1.15,2013-02-04 00:32:00,
2013-02-03 16:38:00,68.9,32.6,29.98,ENE,78,3.0,5.0,26,0.00,,,0.00,Wunderground v.1.15,2013-02-04 00:38:00,
2013-02-03 16:44:00,68.4,33.1,29.98,East,82,3.0,3.0,27,0.00,,,0.00,Wunderground v.1.15,2013-02-04 00:44:00,
2013-02-03 16:50:00,68.4,33.1,29.98,ESE,123,3.0,5.0,27,0.00,,,0.00,Wunderground v.1.15,2013-02-04 00:50:00,
2013-02-03 16:56:00,68.2,33.8,29.98,South,172,5.0,6.0,28,0.00,,,0.00,Wunderground v.1.15,2013-02-04 00:56:00,
2013-02-03 17:02:00,67.6,34.2,29.98,South,190,6.0,10.0,29,0.00,,,0.00,Wunderground v.1.15,2013-02-04 01:02:00,
2013-02-03 17:08:00,66.9,34.4,29.98,South,179,5.0,10.0,30,0.00,,,0.00,Wunderground v.1.15,2013-02-04 01:08:00,
2013-02-03 17:14:00,66.2,34.7,29.98,SSW,195,6.0,9.0,31,0.00,,,0.00,Wunderground v.1.15,2013-02-04 01:14:00,
2013-02-03 17:20:00,65.5,34.0,29.99,SSW,192,8.0,10.0,31,0.00,,,0.00,Wunderground v.1.15,2013-02-04 01:20:00,
2013-02-03 17:26:00,65.0,34.4,29.99,South,191,8.0,10.0,32,0.00,,,0.00,Wunderground v.1.15,2013-02-04 01:26:00,
2013-02-03 17:32:00,64.5,34.7,29.98,South,186,8.0,8.0,33,0.00,,,0.00,Wunderground v.1.15,2013-02-04 01:32:00,
2013-02-03 17:38:00,64.0,34.3,29.98,South,185,8.0,9.0,33,0.00,,,0.00,Wunderground v.1.15,2013-02-04 01:38:00,
2013-02-03 17:44:00,63.6,34.7,29.99,SSW,195,8.0,8.0,34,0.00,,,0.00,Wunderground v.1.15,2013-02-04 01:44:00,
2013-02-03 17:50:00,63.4,34.5,29.99,SSW,202,8.0,8.0,34,0.00,,,0.00,Wunderground v.1.15,2013-02-04 01:50:00,
2013-02-03 17:56:00,63.3,34.4,29.99,SSW,202,8.0,10.0,34,0.00,,,0.00,Wunderground v.1.15,2013-02-04 01:56:00,
2013-02-03 18:02:00,63.2,34.3,29.99,SSW,200,7.0,9.0,34,0.00,,,0.00,Wunderground v.1.15,2013-02-04 02:02:00,
2013-02-03 18:08:00,63.1,34.3,29.99,SSW,198,7.0,9.0,34,0.00,,,0.00,Wunderground v.1.15,2013-02-04 02:08:00,
2013-02-03 18:14:00,62.8,34.7,29.99,SSW,198,6.0,7.0,35,0.00,,,0.00,Wunderground v.1.15,2013-02-04 02:14:00,
2013-02-03 18:20:00,62.5,34.5,30.00,SSW,198,5.0,5.0,35,0.00,,,0.00,Wunderground v.1.15,2013-02-04 02:20:00,
2013-02-03 18:26:00,62.4,34.4,30.00,SSW,198,2.0,5.0,35,0.00,,,0.00,Wunderground v.1.15,2013-02-04 02:26:00,
2013-02-03 18:32:00,62.2,34.2,30.00,SSW,201,1.0,2.0,35,0.00,,,0.00,Wunderground v.1.15,2013-02-04 02:32:00,
2013-02-03 18:38:00,61.6,34.4,30.00,SSW,202,2.0,2.0,36,0.00,,,0.00,Wunderground v.1.15,2013-02-04 02:38:00,
2013-02-03 18:44:00,61.0,33.8,30.01,SSW,206,2.0,3.0,36,0.00,,,0.00,Wunderground v.1.15,2013-02-04 02:44:00,
2013-02-03 18:50:00,60.2,33.8,30.01,West,264,3.0,4.0,37,0.00,,,0.00,Wunderground v.1.15,2013-02-04 02:50:00,
2013-02-03 18:56:00,59.5,33.2,30.01,West,264,3.0,4.0,37,0.00,,,0.00,Wunderground v.1.15,2013-02-04 02:56:00,
2013-02-03 19:02:00,59.0,33.4,30.01,West,264,0.0,1.0,38,0.00,,,0.00,Wunderground v.1.15,2013-02-04 03:02:00,
2013-02-03 19:08:00,58.9,33.3,30.01,West,264,0.0,1.0,38,0.00,,,0.00,Wunderground v.1.15,2013-02-04 03:08:00,
2013-02-03 19:14:00,58.1,33.2,30.01,West,264,0.0,0.0,39,0.00,,,0.00,Wunderground v.1.15,2013-02-04 03:14:00,
2013-02-03 19:20:00,57.5,33.3,30.01,West,263,1.0,4.0,40,0.00,,,0.00,Wunderground v.1.15,2013-02-04 03:20:00,
2013-02-03 19:26:00,56.8,33.3,30.01,West,263,2.0,4.0,41,0.00,,,0.00,Wunderground v.1.15,2013-02-04 03:26:00,
2013-02-03 19:32:00,56.4,33.0,30.01,West,263,3.0,3.0,41,0.00,,,0.00,Wunderground v.1.15,2013-02-04 03:32:00,
2013-02-03 19:38:00,56.1,33.3,30.01,West,263,1.0,3.0,42,0.00,,,0.00,Wunderground v.1.15,2013-02-04 03:38:00,
2013-02-03 19:44:00,55.8,33.0,30.01,West,263,1.0,1.0,42,0.00,,,0.00,Wunderground v.1.15,2013-02-04 03:44:00,
2013-02-03 19:50:00,55.4,32.7,30.02,West,263,0.0,0.0,42,0.00,,,0.00,Wunderground v.1.15,2013-02-04 03:50:00,
2013-02-03 19:56:00,55.0,32.9,30.02,West,263,0.0,1.0,43,0.00,,,0.00,Wunderground v.1.15,2013-02-04 03:56:00,
2013-02-03 20:02:00,54.5,33.0,30.02,West,263,1.0,1.0,44,0.00,,,0.00,Wunderground v.1.15,2013-02-04 04:02:00,
2013-02-03 20:08:00,54.0,33.1,30.02,West,263,0.0,2.0,45,0.00,,,0.00,Wunderground v.1.15,2013-02-04 04:08:00,
2013-02-03 20:14:00,53.6,32.8,30.02,SE,144,3.0,6.0,45,0.00,,,0.00,Wunderground v.1.15,2013-02-04 04:14:00,
2013-02-03 20:20:00,53.4,33.1,30.02,SE,145,4.0,4.0,46,0.00,,,0.00,Wunderground v.1.15,2013-02-04 04:20:00,
2013-02-03 20:26:00,53.3,33.0,30.02,SSE,147,2.0,4.0,46,0.00,,,0.00,Wunderground v.1.15,2013-02-04 04:26:00,
2013-02-03 20:32:00,53.2,32.9,30.01,SSE,155,3.0,5.0,46,0.00,,,0.00,Wunderground v.1.15,2013-02-04 04:32:00,
2013-02-03 20:38:00,53.1,32.8,30.02,SSE,165,4.0,5.0,46,0.00,,,0.00,Wunderground v.1.15,2013-02-04 04:38:00,
2013-02-03 20:44:00,53.1,33.4,30.01,SSW,205,5.0,7.0,47,0.00,,,0.00,Wunderground v.1.15,2013-02-04 04:44:00,
2013-02-03 20:50:00,53.2,32.9,30.01,SSW,207,7.0,7.0,46,0.00,,,0.00,Wunderground v.1.15,2013-02-04 04:50:00,
2013-02-03 20:56:00,53.4,33.1,30.01,SSW,207,7.0,8.0,46,0.00,,,0.00,Wunderground v.1.15,2013-02-04 04:56:00,
2013-02-03 21:02:00,53.8,33.5,30.02,SSW,209,7.0,7.0,46,0.00,,,0.00,Wunderground v.1.15,2013-02-04 05:02:00,
2013-02-03 21:04:00,53.9,33.6,30.02,SSW,211,7.0,7.0,46,0.00,,,0.00,Wunderground v.1.15,2013-02-04 05:04:00,
2013-02-03 21:06:00,54.1,33.8,30.02,SW,215,7.0,7.0,46,0.00,,,0.00,Wunderground v.1.15,2013-02-04 05:06:00,
2013-02-03 21:10:00,54.4,33.5,30.02,SW,216,6.0,7.0,45,0.00,,,0.00,Wunderground v.1.15,2013-02-04 05:10:00,
2013-02-03 21:16:00,54.9,33.4,30.02,SW,216,5.0,7.0,44,0.00,,,0.00,Wunderground v.1.15,2013-02-04 05:16:00,
2013-02-03 21:22:00,55.0,33.5,30.03,SW,216,3.0,4.0,44,0.00,,,0.00,Wunderground v.1.15,2013-02-04 05:22:00,
2013-02-03 21:28:00,55.0,33.5,30.03,SW,216,3.0,4.0,44,0.00,,,0.00,Wunderground v.1.15,2013-02-04 05:28:00,
2013-02-03 21:34:00,54.9,33.4,30.03,SW,216,4.0,6.0,44,0.00,,,0.00,Wunderground v.1.15,2013-02-04 05:34:00,
2013-02-03 21:40:00,54.9,33.4,30.03,SW,215,5.0,5.0,44,0.00,,,0.00,Wunderground v.1.15,2013-02-04 05:40:00,
2013-02-03 21:46:00,54.8,33.3,30.03,SW,215,5.0,5.0,44,0.00,,,0.00,Wunderground v.1.15,2013-02-04 05:46:00,
2013-02-03 21:52:00,54.8,33.3,30.03,SW,214,5.0,7.0,44,0.00,,,0.00,Wunderground v.1.15,2013-02-04 05:52:00,
2013-02-03 21:58:00,54.7,33.2,30.03,SSW,211,5.0,9.0,44,0.00,,,0.00,Wunderground v.1.15,2013-02-04 05:58:00,
2013-02-03 22:04:00,54.8,33.3,30.03,SSW,205,6.0,8.0,44,0.00,,,0.00,Wunderground v.1.15,2013-02-04 06:04:00,
2013-02-03 22:10:00,54.9,33.4,30.03,SSW,205,6.0,6.0,44,0.00,,,0.00,Wunderground v.1.15,2013-02-04 06:10:00,
2013-02-03 22:16:00,55.1,33.0,30.04,SSW,206,5.0,6.0,43,0.00,,,0.00,Wunderground v.1.15,2013-02-04 06:16:00,
2013-02-03 22:22:00,55.5,33.3,30.04,SSW,210,5.0,6.0,43,0.00,,,0.00,Wunderground v.1.15,2013-02-04 06:22:00,
2013-02-03 22:28:00,55.6,33.4,30.04,SSW,211,4.0,6.0,43,0.00,,,0.00,Wunderground v.1.15,2013-02-04 06:28:00,
2013-02-03 22:34:00,55.6,33.4,30.04,SW,219,4.0,6.0,43,0.00,,,0.00,Wunderground v.1.15,2013-02-04 06:34:00,
2013-02-03 22:40:00,55.5,33.3,30.04,SW,231,5.0,7.0,43,0.00,,,0.00,Wunderground v.1.15,2013-02-04 06:40:00,
2013-02-03 22:46:00,55.5,33.3,30.04,SW,234,5.0,7.0,43,0.00,,,0.00,Wunderground v.1.15,2013-02-04 06:46:00,
2013-02-03 22:52:00,55.4,33.3,30.05,SW,236,5.0,6.0,43,0.00,,,0.00,Wunderground v.1.15,2013-02-04 06:52:00,
2013-02-03 22:58:00,55.3,33.2,30.05,WSW,238,5.0,6.0,43,0.00,,,0.00,Wunderground v.1.15,2013-02-04 06:58:00,
2013-02-03 23:04:00,55.2,33.1,30.05,WSW,238,4.0,6.0,43,0.00,,,0.00,Wunderground v.1.15,2013-02-04 07:04:00,
2013-02-03 23:10:00,55.1,33.0,30.05,WSW,237,3.0,3.0,43,0.00,,,0.00,Wunderground v.1.15,2013-02-04 07:10:00,
2013-02-03 23:16:00,54.9,32.8,30.06,WSW,238,1.0,3.0,43,0.00,,,0.00,Wunderground v.1.15,2013-02-04 07:16:00,
2013-02-03 23:22:00,54.5,33.0,30.06,WSW,238,1.0,3.0,44,0.00,,,0.00,Wunderground v.1.15,2013-02-04 07:22:00,
2013-02-03 23:28:00,53.8,32.9,30.05,WSW,238,2.0,3.0,45,0.00,,,0.00,Wunderground v.1.15,2013-02-04 07:28:00,
2013-02-03 23:34:00,53.2,32.4,30.06,WSW,237,1.0,1.0,45,0.00,,,0.00,Wunderground v.1.15,2013-02-04 07:34:00,
2013-02-03 23:40:00,52.6,32.4,30.06,WSW,238,0.0,0.0,46,0.00,,,0.00,Wunderground v.1.15,2013-02-04 07:40:00,
2013-02-03 23:46:00,52.1,31.9,30.05,WSW,237,0.0,0.0,46,0.00,,,0.00,Wunderground v.1.15,2013-02-04 07:46:00,
2013-02-03 23:52:00,51.4,32.3,30.06,WSW,237,0.0,2.0,48,0.00,,,0.00,Wunderground v.1.15,2013-02-04 07:52:00,
2013-02-03 23:58:00,50.8,32.3,30.06,WSW,238,0.0,2.0,49,0.00,,,0.00,Wunderground v.1.15,2013-02-04 07:58:00,